Miscellaneous Local Product
Issued by NWS Hastings, NE

Home | Current Version | Previous Version | Text Only | Print | Product List | Glossary On
Versions: 1 2 3 4 5 6 7 8 9 10 11 12 13 14 15 16 17 18 19 20 21 22 23 24 25 26 27 28 29 30 31 32 33 34 35 36 37 38 39 40 41 42 43 44 45 46 47 48 49 50
977
AXUS43 KGID 081902
MISGRI

GID CWA HOURLY WEATHER ROUNDUP
NATIONAL WEATHER SERVICE HASTINGS NE
100 PM CST THU DEC 08 2016

NOTE: "FAIR" INDICATES FEW OR NO CLOUDS BELOW 12,000 FEET WITH NO
SIGNIFICANT WEATHER AND/OR OBSTRUCTIONS TO VISIBILITY.

...SOUTH CENTRAL NEBRASKA...

CITY           SKY/WX    TMP DP  RH WIND       PRES   REMARKS
GRAND ISLAND   SUNNY     21   5  50 N17       30.61F WCI   7
HASTINGS       SUNNY     22   5  48 N17G24    30.61F WCI   8
KEARNEY        SUNNY     21   1  42 N15G22    30.61S WCI   8
ORD            SUNNY     20   1  43 NW16      30.59F WCI   6
YORK           SUNNY     23   7  50 NW16G23   30.60F WCI  10
AURORA         SUNNY     22   6  49 N16G23    30.60F WCI   8
LEXINGTON      SUNNY     21   2  45 N13       30.61F WCI   8
HOLDREGE       SUNNY     22   4  47 NW12      30.60F WCI  10
HEBRON         SUNNY     23   8  52 N13       30.63F WCI  11

...NEBRASKA PANHANDLE...

CITY           SKY/WX    TMP DP  RH WIND       PRES   REMARKS
CHADRON        SUNNY     13  -4  46 CALM      30.53F
ALLIANCE       SUNNY     13   0  56 W6        30.47F WCI   4
SCOTTSBLUFF    SUNNY     13  -3  49 CALM      30.48F
SIDNEY         SUNNY     13   0  56 CALM      30.46F

...WESTERN AND NORTH CENTRAL NEBRASKA...

CITY           SKY/WX    TMP DP  RH WIND       PRES   REMARKS
VALENTINE      SUNNY     13  -4  46 N14       30.59F WCI  -2
AINSWORTH      SUNNY     15   0  51 NW16      30.57F WCI  -1
ONEILL         SUNNY     18   3  51 NW17      30.60F WCI   3
BROKEN BOW     SUNNY     20   1  43 NW13      30.57F WCI   7
IMPERIAL       SUNNY     13   0  56 N6        30.56F WCI   4
NORTH PLATTE   SUNNY     19  -1  41 N6        30.59F WCI  11
MCCOOK         SUNNY     13   2  61 W9        30.63F WCI   1

...EASTERN NEBRASKA...

CITY           SKY/WX    TMP DP  RH WIND       PRES   REMARKS
NORFOLK        SUNNY     20   5  52 NW18      30.59F WCI   5
SO SIOUX CITY  SUNNY     21   6  52 NW20      30.58F WCI   6
TEKAMAH        SUNNY     23   9  55 NW17      30.60F WCI   9
COLUMBUS       SUNNY     21   7  53 NW17      30.61F WCI   7
ALBION         SUNNY     20   4  49 NW12      30.60F WCI   9
OMAHA EPPLEY   MOSUNNY   23   8  52 NW21      30.60F WCI   8
OFFUTT AFB     MOSUNNY   23   8  52 NW18      30.60F WCI   8
MILLARD        MOSUNNY   23   9  55 NW17      30.62S WCI   9
LINCOLN        SUNNY     23   7  50 NW15      30.63F WCI  10
NEBRASKA CITY  MOSUNNY   22   4  47 NW14G23   30.60F WCI   9
BEATRICE       SUNNY     24   8  51 NW17      30.62F WCI  10
FALLS CITY     SUNNY     24   9  52 NW17G24   30.61F WCI  11

...NORTHERN KANSAS...

CITY           SKY/WX    TMP DP  RH WIND       PRES   REMARKS
GOODLAND       SUNNY     13   1  59 VRB3      30.55F
HILL CITY      SUNNY     21   6  52 N9        30.65F WCI  11
NORTON         CLEAR     18   1  49 W12G17    30.64  WCI   5
PHILLIPSBURG   SUNNY     21   7  53 W15       30.67F WCI   8
SMITH CENTER   SUNNY     19   9  63 NW9       30.67F WCI   9
BELOIT         SUNNY     21   7  53 NW10      30.67F WCI  10
HAYS           SUNNY     22   7  52 N17       30.64F WCI   8
RUSSELL        SUNNY     23   6  48 NW18      30.64F WCI   9
CONCORDIA      SUNNY     22   9  57 NW12G18   30.66F WCI  10
SALINA         SUNNY     24   9  52 NW17      30.68F WCI  11
TOPEKA         SUNNY     25  11  55 NW12      30.64F WCI  14



USA.gov is the U.S. government's official web portal to all federal, state and local government web resources and services.